West Palm Beach, FL

3:49 PM EDT on August 20, 2019 (GMT -0400)
Palm Beach International

Weather History for KPBI - May, 2019

Change the Weather History Date:

Friday, May 10, 2019

  Actual Average Record
Temperature  
Mean Temperature 81 °F 78 °F  
Max Temperature 85 °F 85 °F 94 °F (1998)
Min Temperature 77 °F 70 °F 50 °F (1928)
Degree Days  
Heating Degree Days 0 0  
Month to date heating degree days 0 0  
Since 1 July heating degree days 144 233  
Cooling Degree Days 16 12  
Month to date cooling degree days 139 116  
Year to date cooling degree days 1064 811  
Growing Degree Days 30 (Base 50)    
Moisture  
Dew Point 71 °F    
Average Humidity 73    
Maximum Humidity 85    
Minimum Humidity 61    
Precipitation  
Precipitation T in 0.11 in 3.45 in (1895)
Month to date precipitation 3.58 0.90  
Year to date precipitation 19.30 15.10  
Snow  
Snow 0.00 in - - ()
Month to date snowfall 0.0  
Since 1 July snowfall 0.0  
Snow Depth 0.00 in    
Sea Level Pressure  
Sea Level Pressure 30.01 in    
Wind  
Wind Speed 10 mph (ESE)    
Max Wind Speed 18 mph    
Max Gust Speed 22 mph    
Visibility 10 miles    
Events      
T = Trace of Precipitation, MM = Missing Value Source: NWS Daily Summary

Daily Weather History Graph

Daily Weather History Graph

Search for Another Location

Airport or City:

Astronomy

May. 10, 2019 Rise Set
Actual Time 6:36 AM EDT 7:57 PM EDT
Civil Twilight 6:11 AM EDT 8:22 PM EDT
Nautical Twilight 5:41 AM EDT 8:52 PM EDT
Astronomical Twilight 5:10 AM EDT 9:23 PM EDT
Moon 11:40 AM EDT (5/10) 12:43 AM EDT (5/10)
Length of Visible Light 14h 11m
Length of Day
13h 21m
Waxing Crescent, 35% of the Moon is Illuminated
May 10
Waxing Crescent
May 11
First Quarter
May 18
Full
May 26
Last Quarter
Jun 3
New

Hourly Weather History & Observations

Time (EDT) Temp. Heat Index Dew Point Humidity Pressure Visibility Wind Dir Wind Speed Gust Speed Precip Events Conditions
12:53 AM 78.1 °F - 71.1 °F 79% 30.04 in 10.0 mi ESE 5.8 mph - N/A   Scattered Clouds
1:53 AM 78.1 °F - 72.0 °F 81% 30.02 in 10.0 mi ESE 4.6 mph - N/A   Scattered Clouds
2:53 AM 78.1 °F - 71.1 °F 79% 30.02 in 10.0 mi East 5.8 mph - N/A   Mostly Cloudy
3:53 AM 78.1 °F - 72.0 °F 81% 29.99 in 10.0 mi East 10.4 mph - N/A   Scattered Clouds
4:53 AM 78.1 °F - 71.1 °F 79% 29.98 in 10.0 mi East 8.1 mph - N/A   Scattered Clouds
5:53 AM 77.0 °F - 71.1 °F 82% 29.98 in 10.0 mi ESE 11.5 mph - N/A   Scattered Clouds
6:53 AM 77.0 °F - 71.1 °F 82% 30.00 in 10.0 mi East 6.9 mph - N/A   Scattered Clouds
7:53 AM 79.0 °F - 71.1 °F 77% 30.01 in 10.0 mi East 8.1 mph - N/A   Scattered Clouds
8:53 AM 79.0 °F - 71.1 °F 77% 30.01 in 10.0 mi ESE 12.7 mph - N/A   Scattered Clouds
9:53 AM 81.0 °F 84.9 °F 71.1 °F 72% 30.02 in 10.0 mi East 11.5 mph - N/A   Scattered Clouds
10:53 AM 82.0 °F 86.3 °F 71.1 °F 69% 30.03 in 10.0 mi ESE 10.4 mph - N/A   Mostly Cloudy
11:53 AM 82.9 °F 87.0 °F 70.0 °F 65% 30.03 in 10.0 mi East 11.5 mph - N/A   Mostly Cloudy
12:53 PM 84.9 °F 89.4 °F 70.0 °F 61% 30.02 in 10.0 mi East 12.7 mph - N/A   Scattered Clouds
1:53 PM 84.9 °F 90.7 °F 72.0 °F 65% 30.00 in 10.0 mi ESE 13.8 mph 20.7 mph N/A   Scattered Clouds
2:53 PM 84.0 °F 89.0 °F 71.1 °F 65% 30.00 in 10.0 mi ESE 13.8 mph - N/A   Scattered Clouds
3:53 PM 84.9 °F 90.7 °F 72.0 °F 65% 29.99 in 10.0 mi ESE 15.0 mph - N/A   Scattered Clouds
4:53 PM 81.0 °F 84.9 °F 71.1 °F 72% 29.98 in 10.0 mi ESE 13.8 mph - N/A   Scattered Clouds
5:53 PM 81.0 °F 84.9 °F 71.1 °F 72% 29.99 in 10.0 mi East 10.4 mph - N/A   Scattered Clouds
6:53 PM 81.0 °F 85.2 °F 72.0 °F 74% 29.98 in 10.0 mi East 9.2 mph - N/A   Mostly Cloudy
7:53 PM 80.1 °F 83.2 °F 70.0 °F 71% 29.99 in 10.0 mi ESE 10.4 mph - N/A   Mostly Cloudy
8:53 PM 80.1 °F 83.6 °F 71.1 °F 74% 30.00 in 10.0 mi ESE 8.1 mph - N/A   Scattered Clouds
9:53 PM 79.0 °F - 71.1 °F 77% 30.02 in 10.0 mi East 11.5 mph - N/A   Scattered Clouds
10:53 PM 77.0 °F - 72.0 °F 84% 30.04 in 10.0 mi East 8.1 mph - 0.00 in   Mostly Cloudy
11:53 PM 78.1 °F - 73.0 °F 84% 30.02 in 10.0 mi ESE 8.1 mph - N/A   Mostly Cloudy